GFSGBSN_500_temp_108.txt.gz
Temp
-13 -13 -13 -13 -13 -12 -12 -12 -12 -12 -12 -12 -12 -12 -12 -12 -12 -11 -12 -12 -11 -11 -11 -11 -11 -11 -11 -11 -12 -11 -11 -11 -11 -10 -10 -11 -11 -11 -11 -10 -10 -10 -10 -10 -10 -10 -10
-14 -13 -13 -13 -13 -13 -13 -12 -13 -12 -13 -13 -13 -12 -12 -12 -12 -12 -12 -12 -12 -11 -11 -11 -11 -11 -11 -11 -11 -11 -11 -11 -11 -11 -11 -10 -10 -11 -10 -10 -10 -10 -10 -10 -10 -10 -10
-14 -14 -13 -13 -13 -13 -13 -13 -13 -13 -13 -13 -13 -13 -13 -13 -13 -12 -12 -12 -12 -11 -11 -11 -11 -11 -11 -11 -11 -11 -11 -11 -12 -11 -11 -11 -10 -10 -10 -11 -11 -11 -11 -10 -10 -11 -10
-14 -14 -14 -14 -14 -13 -13 -13 -13 -13 -13 -13 -14 -13 -13 -13 -13 -13 -13 -12 -12 -12 -12 -12 -11 -11 -11 -11 -11 -11 -11 -12 -12 -11 -12 -11 -11 -11 -11 -10 -11 -11 -11 -11 -10 -10 -11
-14 -14 -14 -14 -14 -14 -14 -14 -13 -13 -13 -14 -14 -14 -14 -14 -13 -13 -13 -13 -13 -12 -12 -12 -12 -12 -11 -12 -12 -12 -12 -12 -12 -12 -12 -12 -12 -11 -11 -11 -11 -11 -11 -11 -11 -10 -11
-15 -15 -15 -15 -15 -15 -14 -14 -14 -14 -14 -14 -14 -14 -14 -14 -14 -14 -13 -14 -13 -13 -12 -12 -12 -12 -12 -12 -12 -12 -12 -13 -13 -13 -13 -13 -13 -12 -12 -12 -13 -13 -11 -11 -11 -11 -12
-16 -15 -15 -15 -15 -15 -15 -15 -15 -14 -14 -15 -14 -14 -14 -14 -14 -14 -14 -14 -13 -13 -13 -13 -13 -13 -12 -12 -12 -12 -12 -12 -14 -14 -15 -15 -14 -13 -14 -13 -14 -13 -12 -12 -12 -13 -12
-16 -16 -16 -16 -16 -15 -15 -15 -15 -15 -15 -15 -15 -15 -15 -15 -14 -14 -14 -14 -14 -14 -13 -13 -13 -13 -13 -13 -13 -13 -14 -15 -15 -16 -16 -16 -16 -15 -15 -15 -14 -14 -13 -13 -14 -14 -13
-16 -16 -16 -16 -16 -16 -16 -15 -15 -15 -15 -15 -15 -15 -15 -15 -14 -14 -15 -15 -15 -14 -16 -14 -15 -14 -14 -15 -16 -15 -16 -17 -17 -18 -18 -18 -17 -17 -17 -16 -16 -15 -15 -15 -15 -15 -14
-18 -18 -17 -17 -17 -17 -16 -16 -16 -16 -16 -16 -15 -15 -15 -15 -16 -15 -15 -16 -16 -16 -19 -17 -16 -16 -16 -17 -17 -18 -18 -19 -19 -19 -19 -19 -18 -18 -18 -17 -17 -16 -17 -16 -16 -16 -16
-19 -18 -18 -18 -18 -18 -18 -17 -17 -17 -17 -16 -16 -16 -16 -18 -16 -17 -18 -18 -18 -20 -21 -19 -18 -18 -18 -18 -19 -19 -19 -20 -19 -19 -20 -19 -19 -19 -18 -18 -18 -17 -17 -17 -17 -17 -17
-20 -19 -19 -19 -19 -19 -19 -18 -18 -18 -18 -17 -17 -17 -17 -18 -19 -20 -20 -19 -20 -21 -21 -20 -19 -19 -19 -19 -19 -19 -19 -19 -19 -20 -20 -20 -19 -19 -18 -18 -19 -18 -18 -18 -18 -18 -17
-21 -21 -20 -20 -20 -20 -20 -19 -19 -19 -19 -19 -18 -19 -19 -20 -20 -20 -20 -20 -21 -21 -20 -20 -19 -20 -20 -20 -20 -20 -20 -20 -20 -20 -19 -20 -19 -19 -19 -19 -19 -20 -20 -20 -20 -20 -18
-22 -22 -21 -21 -20 -20 -21 -20 -20 -20 -19 -20 -19 -20 -20 -20 -21 -20 -21 -21 -21 -20 -20 -21 -20 -20 -20 -20 -20 -20 -20 -20 -20 -20 -20 -20 -21 -20 -20 -20 -21 -21 -21 -22 -22 -21 -21
-23 -22 -22 -22 -22 -21 -21 -21 -21 -20 -20 -20 -21 -21 -21 -20 -20 -20 -21 -21 -21 -20 -20 -20 -20 -21 -20 -20 -20 -20 -20 -21 -20 -20 -20 -20 -21 -21 -21 -22 -22 -21 -22 -22 -22 -22 -21
-24 -23 -23 -23 -22 -22 -21 -21 -21 -21 -20 -21 -21 -21 -21 -20 -20 -21 -21 -21 -21 -21 -20 -20 -21 -21 -21 -21 -21 -20 -21 -20 -20 -21 -21 -21 -22 -22 -22 -22 -22 -21 -22 -22 -22 -21 -21
-24 -24 -24 -23 -23 -22 -22 -22 -22 -21 -21 -21 -22 -21 -20 -20 -21 -21 -21 -21 -21 -21 -20 -21 -21 -21 -21 -21 -21 -21 -21 -21 -21 -21 -22 -22 -22 -22 -22 -22 -22 -22 -22 -22 -22 -22 -21
-25 -25 -25 -24 -24 -24 -23 -22 -22 -22 -22 -22 -22 -21 -20 -21 -21 -21 -20 -21 -21 -21 -20 -21 -21 -21 -21 -21 -21 -21 -21 -21 -21 -22 -22 -22 -22 -22 -22 -22 -23 -23 -23 -22 -22 -21 -21
-26 -27 -26 -26 -25 -25 -24 -23 -23 -23 -23 -22 -22 -21 -21 -21 -20 -21 -21 -21 -21 -21 -21 -21 -21 -21 -21 -21 -21 -22 -22 -22 -22 -22 -23 -22 -22 -23 -23 -24 -24 -23 -22 -22 -22 -21 -21
-28 -28 -27 -27 -26 -25 -25 -24 -23 -24 -23 -23 -22 -22 -20 -20 -20 -21 -21 -21 -21 -21 -21 -21 -21 -21 -21 -22 -23 -23 -23 -23 -23 -23 -23 -23 -23 -24 -24 -24 -23 -22 -22 -22 -22 -21 -21
-29 -28 -28 -28 -27 -26 -25 -25 -25 -24 -24 -23 -22 -22 -22 -21 -21 -21 -21 -21 -21 -21 -21 -21 -21 -21 -22 -23 -23 -23 -23 -23 -23 -23 -23 -23 -24 -24 -23 -22 -22 -22 -22 -22 -22 -22 -21
-28 -28 -28 -29 -28 -28 -27 -26 -26 -24 -24 -23 -23 -22 -22 -22 -21 -22 -21 -21 -21 -21 -21 -21 -21 -22 -23 -24 -23 -23 -23 -23 -23 -23 -24 -24 -23 -23 -22 -22 -22 -22 -22 -22 -23 -23 -22
-28 -28 -28 -28 -28 -27 -27 -27 -26 -25 -24 -23 -23 -22 -22 -22 -22 -22 -22 -21 -21 -21 -21 -22 -23 -23 -24 -24 -23 -23 -23 -23 -23 -23 -23 -23 -22 -22 -22 -23 -23 -23 -23 -23 -23 -23 -23
-28 -28 -28 -28 -28 -28 -26 -26 -25 -24 -24 -23 -23 -22 -22 -22 -22 -22 -22 -21 -21 -22 -22 -23 -24 -24 -24 -24 -24 -24 -23 -23 -23 -22 -22 -22 -22 -22 -22 -23 -23 -23 -24 -24 -23 -24 -24
-29 -29 -28 -28 -28 -27 -26 -25 -25 -24 -24 -23 -23 -23 -23 -23 -22 -22 -22 -22 -23 -24 -24 -24 -24 -24 -24 -24 -23 -23 -22 -22 -22 -22 -22 -22 -22 -23 -23 -24 -24 -24 -24 -25 -24 -24 -24
-29 -28 -28 -27 -26 -26 -25 -25 -24 -24 -24 -24 -23 -23 -23 -23 -23 -23 -23 -24 -24 -24 -24 -24 -24 -23 -23 -23 -23 -22 -22 -22 -22 -22 -22 -23 -24 -24 -25 -26 -26 -26 -26 -25 -25 -24 -24
-28 -28 -28 -27 -26 -26 -25 -25 -25 -25 -24 -24 -24 -24 -24 -24 -24 -24 -25 -25 -24 -24 -24 -24 -23 -23 -23 -23 -22 -22 -22 -22 -23 -24 -25 -25 -25 -25 -26 -26 -25 -25 -25 -25 -24 -24 -24
-28 -28 -27 -27 -26 -26 -25 -26 -26 -25 -25 -25 -25 -25 -25 -25 -25 -25 -25 -25 -25 -24 -24 -24 -23 -23 -23 -23 -22 -23 -24 -24 -25 -25 -25 -26 -25 -25 -25 -25 -25 -25 -24 -24 -24 -24 -23
-28 -27 -27 -26 -26 -26 -26 -27 -26 -26 -26 -26 -25 -25 -25 -26 -26 -26 -26 -25 -25 -24 -24 -24 -23 -23 -23 -23 -24 -25 -25 -26 -25 -25 -25 -25 -25 -25 -25 -25 -25 -24 -24 -24 -24 -24 -24

GFSGBSN_500_temp_114.txt.gz
Temp
-12 -12 -11 -11 -11 -11 -11 -11 -11 -11 -11 -12 -12 -12 -12 -12 -12 -12 -12 -12 -11 -12 -12 -11 -11 -11 -11 -11 -12 -11 -11 -11 -11 -11 -11 -11 -11 -11 -10 -10 -10 -10 -10 -10 -10 -10 -10
-13 -12 -12 -12 -12 -12 -12 -12 -12 -12 -13 -13 -13 -13 -13 -13 -13 -12 -12 -12 -12 -12 -12 -12 -12 -12 -11 -11 -12 -11 -12 -11 -11 -11 -11 -11 -11 -11 -10 -11 -10 -10 -10 -10 -10 -10 -11
-15 -15 -15 -15 -14 -13 -13 -13 -13 -13 -14 -14 -14 -13 -13 -13 -13 -13 -13 -13 -13 -13 -12 -12 -12 -12 -12 -12 -12 -12 -12 -12 -11 -11 -11 -11 -11 -11 -11 -11 -11 -11 -10 -10 -10 -11 -10
-15 -17 -15 -15 -15 -15 -14 -14 -14 -14 -14 -14 -14 -15 -14 -14 -13 -13 -13 -14 -13 -13 -13 -12 -13 -12 -12 -12 -12 -12 -12 -12 -12 -12 -12 -12 -12 -12 -12 -12 -11 -11 -11 -10 -11 -11 -11
-17 -17 -17 -16 -16 -16 -16 -16 -16 -15 -15 -15 -15 -15 -15 -14 -14 -14 -14 -14 -14 -13 -13 -13 -13 -13 -12 -12 -13 -12 -12 -12 -12 -12 -12 -12 -12 -12 -12 -12 -11 -11 -11 -11 -10 -11 -12
-16 -17 -16 -16 -17 -16 -16 -16 -16 -16 -15 -15 -15 -15 -14 -14 -14 -14 -14 -14 -14 -13 -14 -13 -13 -13 -13 -13 -13 -12 -12 -12 -12 -12 -13 -13 -12 -12 -12 -12 -11 -12 -12 -11 -11 -12 -16
-17 -17 -17 -17 -17 -17 -17 -17 -16 -16 -16 -16 -15 -15 -15 -15 -15 -15 -15 -14 -14 -15 -14 -14 -14 -14 -14 -13 -13 -13 -12 -12 -13 -13 -12 -12 -12 -12 -12 -12 -12 -12 -12 -12 -11 -11 -16
-18 -17 -17 -17 -17 -17 -17 -17 -17 -17 -17 -16 -16 -16 -16 -16 -16 -16 -15 -15 -15 -15 -15 -14 -14 -14 -14 -14 -13 -13 -13 -13 -13 -13 -13 -12 -12 -12 -12 -13 -15 -15 -15 -14 -15 -14 -15
-18 -18 -18 -18 -18 -17 -18 -17 -17 -17 -17 -17 -17 -17 -17 -16 -16 -16 -16 -15 -15 -15 -15 -14 -14 -14 -14 -14 -13 -13 -14 -14 -13 -13 -13 -13 -13 -14 -15 -14 -17 -17 -18 -18 -18 -18 -18
-19 -18 -18 -18 -18 -18 -18 -18 -17 -17 -17 -17 -17 -17 -17 -17 -16 -16 -16 -16 -16 -17 -17 -13 -14 -13 -13 -14 -14 -14 -14 -15 -14 -15 -15 -15 -15 -16 -16 -16 -19 -21 -19 -20 -19 -19 -20
-19 -19 -19 -19 -18 -18 -18 -18 -18 -18 -18 -18 -18 -17 -17 -17 -17 -16 -17 -17 -18 -18 -18 -14 -14 -13 -13 -14 -15 -15 -14 -16 -16 -17 -18 -15 -17 -17 -19 -18 -19 -20 -20 -20 -19 -19 -19
-20 -20 -19 -19 -19 -19 -19 -19 -19 -19 -19 -19 -18 -18 -18 -18 -17 -17 -18 -18 -20 -20 -16 -15 -15 -14 -15 -16 -16 -17 -18 -17 -18 -18 -19 -18 -19 -19 -20 -19 -20 -20 -19 -19 -20 -20 -20
-21 -21 -20 -20 -20 -19 -19 -19 -20 -20 -19 -19 -19 -19 -19 -18 -18 -18 -19 -19 -21 -19 -17 -16 -16 -16 -16 -17 -18 -18 -19 -19 -19 -19 -19 -19 -19 -19 -20 -19 -20 -20 -20 -20 -20 -20 -19
-22 -22 -21 -21 -21 -20 -20 -20 -20 -20 -20 -20 -20 -20 -20 -19 -19 -19 -20 -21 -21 -17 -17 -19 -19 -19 -17 -18 -19 -20 -19 -19 -20 -20 -20 -21 -19 -20 -20 -20 -20 -21 -20 -20 -20 -20 -20
-23 -23 -22 -22 -22 -21 -21 -20 -21 -21 -21 -21 -21 -20 -20 -20 -20 -20 -21 -21 -19 -18 -19 -20 -21 -20 -20 -19 -20 -20 -20 -20 -20 -20 -20 -21 -20 -20 -20 -20 -20 -20 -20 -21 -21 -21 -20
-24 -23 -23 -23 -23 -23 -22 -22 -22 -22 -22 -22 -22 -21 -21 -20 -20 -21 -21 -21 -19 -19 -20 -21 -22 -22 -21 -20 -22 -21 -20 -20 -20 -20 -21 -21 -21 -20 -21 -20 -20 -20 -21 -21 -21 -21 -21
-24 -24 -24 -24 -23 -23 -23 -22 -22 -23 -22 -23 -22 -22 -21 -21 -21 -22 -22 -21 -20 -20 -21 -21 -21 -22 -21 -21 -20 -21 -20 -21 -19 -20 -20 -21 -21 -21 -21 -20 -21 -21 -21 -22 -22 -22 -21
-26 -26 -26 -25 -25 -24 -24 -24 -23 -23 -23 -23 -23 -23 -22 -22 -22 -21 -21 -20 -20 -20 -21 -21 -21 -21 -21 -21 -21 -21 -21 -21 -20 -21 -21 -21 -21 -21 -21 -22 -21 -22 -22 -22 -22 -21 -22
-28 -27 -27 -27 -26 -26 -25 -25 -24 -24 -24 -23 -23 -23 -23 -22 -22 -21 -21 -21 -21 -21 -21 -21 -21 -21 -21 -21 -21 -21 -21 -20 -21 -21 -21 -21 -21 -22 -22 -22 -22 -22 -22 -22 -22 -22 -22
-28 -28 -28 -27 -27 -27 -26 -26 -25 -25 -25 -24 -24 -24 -23 -23 -22 -22 -21 -21 -21 -21 -21 -21 -21 -21 -21 -21 -21 -20 -21 -20 -21 -21 -21 -21 -22 -22 -22 -22 -23 -23 -22 -22 -23 -23 -22
-28 -28 -28 -28 -27 -27 -27 -27 -26 -26 -25 -25 -24 -24 -23 -23 -22 -22 -22 -22 -22 -22 -21 -22 -21 -21 -21 -21 -21 -21 -21 -21 -21 -21 -21 -22 -22 -22 -22 -22 -23 -22 -22 -23 -23 -23 -23
-29 -28 -28 -27 -27 -27 -27 -27 -27 -26 -26 -26 -25 -24 -24 -23 -23 -23 -23 -22 -22 -22 -22 -22 -21 -21 -21 -21 -21 -21 -21 -21 -21 -21 -22 -22 -22 -22 -22 -22 -22 -23 -22 -23 -23 -23 -23
-30 -29 -28 -27 -28 -28 -27 -28 -28 -27 -26 -26 -25 -25 -24 -24 -24 -24 -23 -22 -22 -22 -21 -22 -21 -21 -21 -21 -21 -20 -21 -21 -21 -22 -22 -22 -23 -23 -23 -23 -23 -23 -23 -23 -22 -23 -23
-30 -29 -29 -28 -28 -28 -29 -29 -28 -28 -27 -26 -26 -26 -25 -24 -24 -23 -22 -23 -22 -22 -22 -21 -21 -21 -21 -21 -21 -21 -21 -21 -22 -23 -23 -23 -23 -23 -23 -23 -23 -22 -22 -22 -22 -22 -22
-30 -30 -29 -28 -28 -28 -29 -29 -28 -28 -28 -27 -27 -26 -26 -25 -24 -23 -23 -22 -22 -22 -22 -22 -21 -21 -21 -21 -21 -21 -22 -22 -23 -23 -23 -23 -23 -23 -23 -23 -22 -22 -22 -23 -23 -23 -23
-31 -30 -29 -28 -28 -28 -28 -28 -28 -28 -28 -27 -27 -26 -25 -25 -23 -23 -23 -23 -22 -22 -21 -22 -22 -21 -22 -22 -21 -22 -23 -23 -23 -23 -23 -23 -23 -23 -23 -23 -23 -23 -23 -24 -24 -24 -25
-29 -29 -29 -29 -28 -28 -28 -28 -29 -28 -27 -27 -27 -26 -25 -25 -24 -24 -23 -23 -22 -22 -22 -22 -22 -22 -22 -22 -23 -23 -23 -23 -22 -22 -22 -22 -23 -23 -24 -24 -24 -25 -25 -25 -25 -25 -25
-29 -29 -29 -29 -28 -28 -28 -28 -28 -28 -27 -27 -26 -26 -25 -25 -24 -24 -23 -23 -23 -22 -22 -22 -22 -22 -23 -23 -23 -23 -23 -23 -23 -22 -23 -23 -24 -24 -25 -25 -24 -25 -24 -24 -24 -24 -24
-29 -29 -29 -28 -28 -28 -28 -28 -27 -27 -27 -27 -26 -26 -25 -25 -24 -23 -23 -22 -22 -22 -22 -22 -23 -23 -24 -23 -23 -23 -23 -23 -23 -23 -24 -25 -25 -25 -25 -25 -25 -25 -24 -24 -24 -24 -24

GFSGBSN_500_temp_120.txt.gz
Temp
-13 -13 -13 -12 -12 -12 -12 -12 -12 -12 -11 -11 -11 -11 -11 -11 -11 -11 -11 -11 -10 -11 -11 -11 -11 -11 -11 -12 -12 -11 -12 -12 -12 -12 -11 -11 -11 -11 -11 -11 -11 -11 -11 -11 -11 -11 -11
-13 -13 -13 -13 -13 -13 -12 -12 -13 -12 -12 -12 -12 -12 -12 -11 -11 -11 -11 -11 -11 -11 -11 -11 -11 -12 -12 -12 -12 -12 -12 -12 -12 -12 -12 -12 -12 -12 -12 -12 -12 -12 -11 -11 -11 -11 -11
-13 -14 -14 -13 -13 -13 -13 -13 -13 -13 -13 -13 -13 -12 -12 -12 -12 -12 -12 -12 -12 -12 -12 -12 -12 -12 -12 -13 -13 -12 -12 -13 -13 -12 -12 -12 -12 -12 -12 -12 -12 -12 -11 -11 -11 -12 -11
-14 -14 -14 -14 -14 -14 -14 -14 -14 -14 -13 -13 -13 -13 -13 -13 -13 -14 -14 -14 -14 -14 -13 -13 -13 -13 -13 -13 -13 -13 -13 -13 -13 -13 -13 -13 -13 -12 -12 -12 -12 -12 -12 -11 -11 -12 -12
-14 -15 -15 -15 -14 -14 -14 -14 -15 -14 -14 -14 -15 -15 -15 -15 -14 -15 -15 -15 -15 -15 -14 -14 -14 -13 -13 -13 -13 -13 -13 -13 -13 -14 -13 -13 -13 -12 -12 -12 -12 -12 -12 -11 -12 -12 -12
-15 -16 -16 -16 -16 -15 -16 -15 -15 -15 -15 -15 -15 -15 -16 -16 -16 -16 -16 -16 -15 -15 -15 -15 -14 -14 -13 -14 -14 -14 -14 -14 -14 -13 -13 -13 -13 -13 -13 -13 -13 -12 -12 -12 -12 -12 -12
-16 -16 -16 -16 -16 -16 -16 -16 -17 -17 -17 -16 -16 -16 -17 -16 -16 -16 -15 -16 -15 -15 -15 -15 -14 -14 -15 -15 -14 -14 -14 -14 -14 -14 -14 -14 -13 -13 -14 -13 -13 -13 -12 -12 -12 -12 -12
-17 -17 -17 -17 -17 -17 -17 -17 -17 -18 -18 -17 -17 -17 -17 -17 -17 -16 -16 -17 -16 -15 -14 -15 -15 -14 -15 -15 -14 -15 -14 -14 -14 -14 -14 -14 -13 -14 -14 -14 -13 -13 -13 -13 -12 -13 -13
-18 -18 -18 -18 -18 -18 -18 -18 -18 -18 -17 -17 -18 -18 -17 -17 -17 -17 -17 -17 -17 -16 -14 -14 -15 -15 -14 -15 -15 -15 -15 -14 -14 -13 -14 -14 -14 -14 -14 -14 -13 -13 -14 -14 -13 -13 -13
-19 -19 -19 -19 -19 -19 -19 -19 -19 -19 -18 -19 -18 -18 -18 -18 -17 -18 -18 -18 -18 -17 -15 -14 -14 -14 -15 -15 -15 -15 -15 -15 -15 -14 -14 -13 -15 -15 -14 -14 -15 -13 -16 -15 -14 -14 -14
-20 -20 -20 -20 -19 -19 -19 -19 -19 -19 -19 -19 -19 -19 -19 -18 -18 -18 -19 -18 -18 -18 -16 -15 -14 -14 -15 -16 -16 -16 -16 -15 -16 -15 -15 -14 -15 -15 -14 -15 -17 -14 -17 -17 -17 -18 -19
-21 -20 -20 -20 -20 -20 -20 -20 -20 -20 -19 -19 -19 -19 -19 -19 -18 -19 -19 -19 -19 -19 -16 -16 -15 -15 -16 -16 -16 -16 -16 -16 -16 -16 -15 -15 -16 -15 -15 -15 -17 -17 -18 -18 -19 -19 -19
-21 -21 -21 -21 -20 -20 -20 -20 -20 -20 -20 -20 -20 -20 -19 -19 -20 -20 -20 -21 -20 -18 -16 -16 -17 -17 -16 -16 -16 -17 -17 -16 -16 -16 -16 -16 -16 -17 -16 -16 -19 -19 -19 -19 -20 -19 -19
-22 -22 -21 -21 -21 -21 -21 -21 -21 -21 -21 -21 -21 -21 -21 -20 -21 -21 -21 -22 -21 -17 -17 -18 -19 -20 -18 -17 -17 -17 -17 -17 -17 -17 -17 -17 -16 -18 -19 -19 -19 -19 -19 -20 -21 -20 -20
-22 -22 -22 -22 -22 -22 -22 -22 -22 -22 -22 -22 -21 -22 -22 -21 -21 -21 -22 -21 -19 -18 -18 -19 -20 -20 -19 -18 -18 -18 -18 -17 -17 -20 -19 -19 -18 -18 -19 -20 -20 -20 -20 -21 -20 -20 -20
-23 -23 -23 -23 -23 -23 -23 -22 -22 -22 -22 -22 -22 -22 -21 -22 -22 -22 -23 -22 -19 -19 -20 -20 -20 -20 -19 -19 -20 -19 -19 -19 -19 -19 -20 -19 -19 -20 -20 -20 -20 -21 -21 -20 -21 -21 -21
-23 -24 -23 -23 -23 -24 -23 -23 -23 -23 -23 -23 -23 -23 -22 -23 -23 -23 -23 -22 -20 -20 -21 -21 -20 -20 -19 -19 -20 -20 -19 -20 -20 -20 -20 -21 -21 -20 -21 -20 -21 -20 -20 -21 -21 -21 -21
-24 -24 -24 -24 -24 -24 -24 -24 -24 -24 -24 -24 -24 -23 -23 -24 -24 -24 -23 -22 -21 -21 -21 -21 -21 -21 -20 -20 -20 -21 -20 -20 -20 -20 -21 -21 -21 -21 -21 -21 -20 -21 -21 -21 -21 -21 -22
-25 -25 -25 -25 -24 -24 -24 -24 -25 -24 -24 -24 -24 -24 -24 -24 -25 -24 -24 -23 -23 -22 -21 -22 -22 -21 -22 -21 -22 -21 -21 -21 -21 -21 -21 -21 -21 -21 -21 -21 -20 -21 -21 -21 -22 -22 -22
-26 -26 -26 -25 -25 -25 -25 -25 -25 -25 -25 -25 -25 -25 -24 -24 -25 -24 -24 -23 -23 -23 -22 -22 -22 -22 -22 -22 -22 -21 -21 -21 -21 -21 -21 -22 -22 -21 -21 -21 -21 -21 -21 -22 -22 -22 -22
-27 -27 -26 -26 -26 -26 -26 -26 -26 -26 -26 -26 -26 -25 -25 -25 -24 -24 -24 -24 -24 -23 -23 -22 -22 -22 -22 -22 -22 -22 -22 -21 -21 -21 -21 -22 -21 -21 -21 -21 -21 -21 -22 -23 -23 -23 -23
-27 -27 -27 -27 -27 -26 -26 -26 -26 -26 -26 -27 -27 -26 -26 -25 -25 -26 -25 -25 -24 -23 -24 -23 -23 -23 -23 -23 -22 -22 -22 -22 -21 -22 -21 -21 -21 -21 -21 -21 -21 -21 -22 -23 -23 -23 -23
-28 -28 -28 -27 -27 -27 -27 -27 -27 -27 -27 -29 -28 -27 -28 -27 -27 -27 -26 -25 -24 -24 -24 -23 -23 -24 -23 -23 -23 -22 -22 -22 -22 -22 -22 -22 -21 -21 -21 -21 -21 -21 -22 -23 -23 -23 -23
-29 -28 -28 -28 -28 -28 -27 -27 -27 -27 -28 -29 -29 -28 -28 -28 -28 -27 -26 -26 -25 -24 -24 -24 -24 -24 -23 -23 -23 -23 -23 -22 -22 -22 -22 -21 -22 -21 -21 -21 -21 -22 -23 -23 -23 -23 -23
-29 -29 -29 -28 -28 -28 -28 -28 -28 -28 -28 -28 -29 -29 -28 -28 -27 -27 -27 -26 -26 -25 -24 -24 -24 -24 -23 -23 -23 -23 -22 -22 -22 -22 -22 -22 -21 -21 -22 -22 -22 -22 -23 -23 -23 -23 -22
-30 -30 -30 -30 -29 -30 -30 -29 -29 -29 -28 -29 -29 -29 -29 -28 -27 -27 -27 -26 -26 -25 -25 -24 -24 -24 -24 -24 -23 -23 -22 -22 -22 -22 -22 -22 -22 -22 -22 -22 -22 -23 -23 -23 -23 -23 -24
-32 -31 -31 -31 -30 -30 -31 -30 -29 -29 -29 -29 -29 -29 -29 -28 -28 -27 -27 -26 -26 -25 -25 -24 -24 -24 -24 -23 -23 -23 -23 -23 -22 -22 -22 -22 -22 -22 -23 -22 -22 -23 -23 -23 -24 -24 -24
-32 -32 -32 -31 -30 -31 -30 -30 -29 -29 -29 -29 -29 -29 -28 -28 -27 -27 -27 -26 -25 -25 -24 -23 -24 -24 -23 -23 -23 -23 -23 -22 -22 -22 -22 -23 -23 -23 -22 -22 -23 -23 -24 -24 -24 -24 -25
-32 -31 -32 -31 -30 -30 -30 -30 -29 -29 -29 -28 -29 -28 -28 -28 -27 -27 -26 -26 -25 -25 -25 -24 -24 -24 -24 -24 -23 -24 -23 -23 -23 -23 -23 -23 -23 -23 -23 -23 -24 -24 -24 -24 -24 -24 -24

GFSGBSN_500_temp_123.txt.gz
Temp
-12 -12 -13 -12 -12 -12 -12 -12 -11 -11 -11 -11 -11 -11 -11 -10 -10 -10 -10 -10 -10 -10 -10 -10 -10 -11 -11 -11 -11 -11 -12 -12 -12 -12 -12 -12 -11 -11 -11 -11 -12 -11 -12 -12 -12 -12 -11
-13 -13 -13 -13 -13 -13 -13 -12 -12 -12 -12 -12 -12 -11 -11 -11 -11 -11 -11 -11 -11 -10 -10 -10 -11 -11 -11 -12 -12 -12 -12 -12 -12 -12 -12 -12 -12 -12 -11 -12 -12 -12 -12 -12 -12 -12 -12
-13 -14 -14 -14 -14 -14 -14 -13 -13 -13 -13 -13 -13 -12 -12 -12 -12 -12 -12 -12 -11 -11 -11 -11 -11 -12 -12 -13 -12 -12 -12 -13 -13 -13 -13 -12 -12 -12 -12 -12 -12 -12 -12 -12 -12 -12 -12
-14 -14 -14 -14 -14 -14 -13 -14 -14 -14 -14 -13 -13 -13 -12 -13 -13 -13 -12 -12 -12 -12 -12 -12 -11 -12 -13 -13 -13 -13 -13 -13 -13 -13 -13 -13 -13 -13 -13 -13 -13 -12 -12 -12 -12 -12 -12
-13 -14 -14 -14 -14 -14 -14 -14 -14 -14 -14 -14 -14 -14 -13 -13 -13 -13 -13 -13 -13 -13 -13 -13 -13 -13 -13 -14 -14 -13 -13 -14 -13 -13 -13 -14 -14 -13 -13 -13 -13 -13 -13 -13 -13 -12 -12
-14 -15 -15 -15 -14 -14 -15 -14 -14 -15 -15 -15 -15 -14 -14 -14 -14 -14 -14 -13 -13 -13 -13 -14 -13 -14 -14 -14 -14 -14 -14 -14 -14 -14 -14 -14 -14 -14 -14 -14 -13 -13 -13 -13 -13 -13 -12
-16 -15 -16 -17 -15 -16 -15 -15 -16 -16 -15 -15 -15 -15 -15 -15 -15 -14 -15 -14 -14 -13 -13 -14 -13 -14 -14 -14 -14 -14 -14 -14 -14 -14 -14 -14 -14 -14 -14 -14 -13 -13 -13 -13 -13 -13 -13
-17 -16 -16 -16 -16 -16 -16 -16 -16 -16 -16 -16 -16 -16 -16 -16 -16 -16 -16 -16 -15 -14 -14 -14 -15 -13 -15 -14 -13 -15 -14 -14 -15 -15 -15 -15 -14 -15 -14 -14 -14 -13 -13 -13 -14 -14 -13
-18 -18 -18 -18 -18 -17 -17 -17 -17 -17 -17 -17 -17 -17 -16 -17 -17 -17 -17 -17 -16 -15 -14 -14 -15 -14 -15 -15 -14 -15 -14 -14 -15 -15 -15 -14 -14 -14 -14 -14 -14 -14 -14 -14 -14 -13 -13
-18 -18 -19 -19 -19 -19 -18 -18 -18 -18 -18 -17 -17 -17 -17 -17 -17 -18 -18 -17 -17 -16 -15 -14 -15 -14 -15 -15 -16 -15 -15 -15 -15 -15 -15 -14 -15 -15 -14 -14 -15 -14 -15 -14 -14 -14 -13
-19 -19 -19 -19 -19 -19 -20 -19 -19 -19 -19 -18 -18 -18 -18 -18 -17 -19 -19 -18 -18 -17 -16 -15 -14 -14 -15 -16 -16 -16 -16 -15 -15 -15 -15 -15 -16 -16 -15 -16 -15 -15 -15 -15 -15 -15 -14
-21 -20 -20 -20 -20 -20 -20 -20 -19 -19 -19 -19 -19 -18 -18 -18 -19 -19 -19 -19 -19 -18 -16 -15 -14 -15 -16 -17 -17 -17 -16 -16 -16 -16 -15 -15 -16 -15 -16 -16 -16 -16 -16 -17 -16 -17 -16
-22 -22 -21 -21 -21 -21 -21 -21 -21 -21 -21 -20 -20 -19 -19 -19 -20 -20 -20 -20 -20 -18 -16 -16 -16 -16 -16 -17 -17 -17 -17 -17 -17 -16 -16 -16 -16 -16 -16 -16 -17 -18 -18 -18 -18 -19 -19
-22 -22 -22 -22 -22 -21 -22 -22 -21 -22 -22 -22 -22 -21 -20 -20 -21 -21 -21 -21 -20 -17 -17 -18 -19 -19 -18 -18 -18 -18 -18 -17 -17 -17 -17 -17 -17 -17 -17 -18 -18 -19 -19 -20 -20 -20 -20
-23 -22 -22 -22 -22 -22 -22 -22 -22 -22 -22 -22 -22 -21 -21 -21 -22 -22 -22 -22 -20 -18 -18 -18 -20 -20 -19 -19 -19 -19 -19 -18 -18 -18 -17 -17 -17 -18 -19 -19 -19 -20 -20 -20 -20 -20 -20
-23 -23 -23 -23 -23 -23 -22 -23 -23 -22 -22 -22 -22 -22 -21 -22 -22 -22 -23 -22 -20 -19 -20 -20 -21 -21 -20 -20 -20 -20 -20 -19 -19 -18 -18 -18 -18 -18 -19 -20 -20 -21 -21 -21 -21 -21 -21
-24 -24 -24 -24 -24 -23 -23 -23 -23 -23 -23 -23 -23 -23 -22 -23 -24 -24 -23 -22 -21 -21 -22 -21 -21 -21 -21 -21 -21 -21 -20 -20 -20 -19 -20 -20 -20 -19 -20 -20 -21 -21 -21 -21 -22 -21 -21
-25 -25 -24 -24 -24 -24 -23 -24 -24 -24 -24 -24 -23 -23 -23 -24 -24 -24 -23 -22 -22 -22 -22 -22 -22 -21 -21 -21 -21 -21 -21 -21 -21 -21 -21 -21 -21 -21 -20 -21 -21 -21 -21 -21 -22 -21 -21
-25 -25 -25 -25 -24 -24 -24 -24 -24 -24 -24 -24 -24 -24 -24 -25 -25 -24 -23 -23 -23 -22 -22 -22 -22 -22 -22 -22 -22 -21 -21 -21 -21 -21 -21 -21 -21 -21 -21 -21 -21 -21 -21 -21 -21 -21 -21
-26 -26 -26 -25 -25 -25 -25 -25 -24 -25 -25 -25 -25 -24 -25 -25 -25 -24 -24 -24 -24 -23 -23 -23 -23 -23 -23 -22 -22 -22 -22 -22 -22 -22 -22 -22 -22 -22 -21 -22 -21 -21 -21 -21 -22 -21 -21
-27 -27 -26 -26 -26 -26 -26 -25 -25 -25 -26 -26 -26 -25 -25 -25 -24 -24 -25 -24 -24 -24 -23 -23 -23 -23 -23 -23 -23 -23 -22 -22 -22 -22 -22 -22 -22 -22 -22 -22 -21 -21 -21 -21 -21 -21 -21
-28 -28 -27 -27 -27 -27 -26 -26 -26 -26 -26 -27 -26 -25 -25 -25 -25 -25 -25 -25 -24 -24 -24 -24 -24 -24 -23 -24 -24 -23 -24 -23 -22 -22 -22 -22 -22 -22 -22 -22 -22 -21 -20 -21 -21 -22 -22
-29 -28 -28 -28 -28 -27 -27 -27 -27 -27 -27 -27 -27 -26 -26 -26 -26 -26 -26 -25 -25 -25 -25 -24 -24 -24 -24 -23 -24 -24 -23 -23 -23 -23 -22 -22 -22 -22 -22 -22 -22 -21 -20 -21 -22 -22 -22
-30 -29 -29 -28 -28 -28 -28 -27 -27 -27 -27 -27 -27 -27 -27 -26 -26 -26 -26 -26 -26 -25 -25 -25 -25 -25 -24 -25 -24 -24 -24 -23 -23 -23 -23 -22 -23 -22 -22 -22 -21 -21 -21 -21 -22 -22 -23
-30 -30 -29 -29 -29 -28 -28 -28 -28 -28 -28 -28 -27 -28 -27 -27 -27 -27 -26 -27 -26 -26 -25 -25 -25 -24 -25 -25 -25 -25 -24 -24 -23 -22 -23 -22 -22 -22 -22 -22 -21 -21 -21 -22 -23 -23 -23
-30 -30 -30 -30 -29 -29 -29 -29 -28 -28 -28 -28 -28 -28 -28 -28 -27 -28 -28 -28 -28 -27 -26 -25 -26 -25 -25 -25 -25 -25 -24 -23 -23 -23 -23 -23 -22 -22 -22 -22 -21 -21 -22 -23 -23 -22 -23
-31 -30 -30 -30 -30 -30 -29 -29 -28 -28 -28 -28 -28 -28 -28 -28 -28 -29 -28 -28 -28 -27 -27 -27 -26 -26 -25 -25 -24 -24 -24 -24 -23 -23 -23 -22 -23 -23 -23 -22 -21 -22 -23 -22 -22 -23 -23
-32 -31 -31 -31 -30 -30 -30 -29 -29 -29 -29 -29 -29 -28 -28 -28 -29 -28 -28 -28 -28 -27 -27 -26 -26 -26 -25 -25 -24 -24 -24 -24 -23 -23 -22 -23 -23 -23 -23 -23 -23 -23 -23 -23 -23 -24 -24
-32 -32 -32 -32 -31 -31 -31 -31 -30 -30 -31 -30 -29 -29 -29 -29 -28 -28 -28 -28 -27 -27 -27 -26 -26 -25 -25 -25 -24 -24 -24 -24 -24 -23 -23 -23 -23 -23 -23 -23 -23 -23 -23 -24 -24 -24 -24

GFSGBSN_500_temp_129.txt.gz
Temp
-13 -12 -12 -12 -12 -12 -12 -12 -12 -11 -11 -11 -11 -11 -11 -10 -10 -10 -11 -10 -10 -10 -10 -10 -10 -11 -11 -11 -11 -10 -11 -11 -11 -11 -11 -11 -11 -11 -11 -11 -11 -11 -12 -12 -12 -12 -12
-13 -13 -13 -13 -13 -13 -13 -12 -12 -12 -12 -12 -12 -12 -12 -12 -11 -11 -11 -11 -11 -10 -10 -11 -11 -11 -11 -11 -11 -11 -11 -11 -11 -11 -11 -11 -11 -12 -12 -12 -12 -12 -12 -12 -12 -12 -12
-13 -13 -13 -13 -13 -13 -13 -13 -13 -13 -13 -13 -13 -13 -12 -12 -12 -12 -12 -11 -11 -10 -11 -11 -11 -12 -12 -11 -12 -12 -12 -12 -12 -12 -12 -12 -12 -12 -12 -12 -13 -12 -12 -13 -13 -13 -13
-14 -14 -13 -13 -13 -13 -14 -14 -13 -13 -13 -13 -13 -13 -13 -13 -12 -12 -12 -12 -11 -11 -11 -11 -12 -12 -12 -12 -11 -12 -12 -13 -13 -13 -13 -13 -13 -13 -13 -13 -13 -13 -12 -13 -13 -13 -13
-14 -14 -14 -14 -14 -14 -14 -13 -13 -14 -13 -13 -14 -14 -13 -13 -13 -12 -12 -12 -12 -11 -12 -12 -12 -12 -12 -12 -12 -12 -13 -13 -13 -14 -14 -14 -14 -14 -14 -14 -14 -13 -13 -13 -13 -13 -13
-15 -14 -15 -14 -14 -14 -14 -14 -13 -13 -13 -14 -14 -14 -13 -14 -13 -13 -13 -13 -12 -12 -12 -12 -12 -12 -12 -12 -12 -12 -13 -13 -14 -14 -14 -14 -13 -14 -14 -14 -13 -13 -13 -13 -13 -14 -13
-16 -15 -15 -15 -14 -15 -15 -14 -14 -14 -14 -14 -14 -14 -14 -14 -14 -14 -14 -14 -13 -12 -12 -12 -12 -13 -12 -13 -12 -12 -13 -13 -14 -15 -15 -14 -13 -14 -15 -14 -14 -13 -13 -13 -14 -14 -12
-16 -15 -14 -15 -15 -15 -15 -15 -15 -14 -14 -14 -14 -14 -14 -14 -14 -15 -14 -14 -14 -13 -12 -13 -13 -13 -13 -13 -13 -13 -13 -13 -14 -14 -15 -14 -14 -14 -14 -14 -14 -14 -13 -14 -13 -13 -13
-15 -16 -15 -15 -15 -14 -15 -15 -15 -14 -14 -14 -14 -14 -14 -15 -16 -15 -15 -15 -14 -14 -13 -13 -13 -13 -13 -13 -13 -15 -13 -14 -14 -14 -15 -14 -14 -14 -14 -14 -14 -14 -13 -14 -13 -13 -13
-18 -16 -16 -15 -16 -15 -15 -15 -15 -15 -15 -15 -15 -15 -16 -17 -16 -16 -16 -16 -15 -14 -14 -13 -14 -13 -14 -14 -14 -14 -14 -14 -14 -15 -14 -14 -15 -14 -14 -15 -14 -14 -15 -14 -13 -13 -13
-19 -18 -17 -17 -17 -17 -17 -17 -17 -17 -16 -17 -16 -16 -17 -17 -18 -17 -17 -17 -16 -16 -16 -15 -14 -14 -14 -14 -15 -15 -15 -15 -15 -15 -15 -15 -15 -15 -15 -15 -15 -15 -15 -15 -15 -14 -14
-20 -20 -19 -18 -18 -19 -19 -18 -19 -18 -18 -18 -18 -18 -17 -18 -18 -18 -18 -18 -18 -17 -16 -15 -15 -15 -15 -15 -16 -16 -16 -16 -16 -16 -16 -16 -16 -16 -16 -16 -16 -16 -17 -16 -16 -16 -15
-22 -21 -21 -20 -20 -20 -20 -20 -19 -20 -19 -19 -19 -18 -18 -18 -18 -19 -19 -19 -19 -17 -16 -17 -16 -16 -17 -17 -17 -17 -17 -17 -17 -18 -18 -17 -17 -17 -17 -17 -18 -18 -17 -17 -17 -17 -16
-23 -22 -22 -22 -21 -21 -21 -21 -22 -20 -20 -20 -19 -19 -19 -19 -19 -19 -19 -20 -19 -17 -17 -18 -18 -18 -18 -18 -18 -19 -19 -19 -19 -19 -19 -18 -18 -19 -19 -19 -19 -18 -19 -19 -18 -18 -17
-23 -23 -23 -23 -22 -22 -22 -22 -22 -21 -21 -20 -20 -20 -20 -20 -20 -21 -20 -20 -18 -19 -19 -19 -20 -20 -20 -20 -20 -20 -20 -20 -20 -20 -20 -20 -19 -19 -20 -20 -20 -20 -20 -20 -20 -19 -18
-24 -24 -24 -24 -23 -23 -23 -23 -23 -22 -22 -21 -21 -21 -21 -21 -21 -22 -22 -19 -19 -19 -20 -20 -21 -22 -21 -21 -21 -21 -21 -21 -21 -21 -21 -21 -20 -20 -20 -20 -20 -21 -21 -21 -21 -21 -20
-25 -24 -24 -24 -24 -24 -24 -24 -24 -24 -23 -23 -22 -22 -22 -23 -23 -24 -22 -20 -20 -21 -21 -21 -21 -22 -22 -22 -22 -22 -22 -22 -22 -22 -22 -22 -22 -21 -21 -21 -21 -22 -21 -21 -22 -22 -22
-26 -26 -25 -25 -26 -25 -25 -24 -24 -24 -24 -24 -24 -23 -23 -23 -23 -23 -22 -22 -22 -22 -22 -22 -22 -22 -22 -22 -22 -22 -22 -23 -23 -23 -23 -23 -23 -22 -22 -22 -22 -22 -21 -22 -22 -22 -22
-27 -27 -27 -26 -27 -27 -26 -25 -24 -25 -24 -24 -24 -24 -24 -24 -24 -23 -23 -23 -23 -22 -23 -23 -23 -23 -23 -23 -23 -22 -22 -23 -23 -23 -24 -24 -23 -23 -23 -22 -22 -22 -21 -21 -22 -22 -21
-27 -27 -28 -28 -28 -28 -27 -26 -25 -25 -25 -25 -25 -25 -25 -24 -24 -24 -24 -23 -23 -23 -23 -23 -23 -23 -23 -23 -23 -23 -23 -23 -23 -23 -23 -23 -23 -23 -23 -23 -23 -22 -22 -22 -23 -22 -22
-29 -29 -29 -29 -28 -28 -28 -27 -28 -28 -26 -25 -25 -25 -25 -24 -24 -24 -24 -24 -23 -23 -23 -23 -23 -23 -24 -24 -24 -24 -24 -24 -24 -24 -24 -24 -23 -23 -23 -23 -23 -22 -22 -22 -22 -22 -22
-30 -30 -30 -29 -29 -29 -28 -28 -28 -28 -28 -27 -26 -25 -25 -25 -24 -24 -24 -23 -23 -23 -24 -24 -24 -24 -25 -24 -24 -24 -24 -24 -24 -24 -24 -24 -24 -23 -23 -23 -23 -23 -22 -22 -22 -23 -22
-32 -32 -32 -31 -30 -30 -29 -29 -29 -29 -29 -28 -27 -27 -26 -25 -25 -25 -24 -24 -24 -25 -25 -24 -25 -25 -25 -25 -25 -25 -25 -24 -24 -24 -24 -24 -24 -24 -23 -23 -23 -23 -22 -23 -22 -23 -23
-33 -33 -33 -31 -31 -30 -30 -29 -29 -29 -29 -29 -28 -29 -28 -26 -26 -25 -25 -25 -25 -25 -25 -25 -25 -25 -25 -25 -25 -25 -25 -24 -24 -24 -24 -24 -24 -24 -24 -24 -24 -23 -23 -23 -23 -23 -23
-34 -33 -33 -32 -32 -31 -31 -30 -30 -29 -29 -29 -29 -29 -29 -28 -27 -26 -26 -26 -26 -26 -26 -25 -26 -26 -26 -26 -26 -25 -25 -25 -24 -24 -24 -24 -24 -24 -25 -24 -24 -23 -22 -23 -23 -22 -23
-34 -34 -34 -33 -33 -32 -31 -31 -30 -30 -29 -29 -30 -29 -29 -30 -27 -27 -26 -27 -27 -27 -27 -26 -26 -26 -26 -26 -26 -26 -25 -25 -25 -24 -24 -24 -25 -25 -25 -24 -24 -23 -23 -23 -23 -22 -23
-34 -34 -34 -34 -33 -33 -32 -31 -31 -30 -30 -29 -29 -30 -30 -30 -28 -28 -27 -27 -27 -27 -27 -27 -27 -27 -27 -27 -27 -26 -26 -26 -26 -25 -24 -25 -25 -25 -25 -24 -23 -23 -23 -23 -23 -23 -23
-34 -34 -34 -34 -33 -33 -32 -32 -31 -30 -30 -30 -30 -30 -30 -29 -29 -28 -28 -27 -28 -27 -27 -27 -28 -28 -27 -27 -27 -26 -26 -26 -26 -25 -25 -25 -24 -25 -25 -24 -24 -24 -24 -24 -23 -23 -23
-34 -34 -33 -33 -33 -33 -33 -32 -31 -31 -31 -30 -30 -30 -30 -29 -28 -28 -28 -28 -27 -28 -27 -28 -28 -27 -28 -27 -27 -27 -27 -26 -26 -25 -25 -25 -25 -25 -24 -24 -24 -24 -24 -24 -24 -23 -23

GFSGBSN_500_temp_132.txt.gz
Temp
-13 -13 -13 -12 -12 -12 -12 -12 -11 -11 -11 -11 -11 -11 -11 -11 -11 -10 -10 -10 -10 -10 -10 -10 -10 -10 -10 -10 -10 -10 -10 -10 -10 -10 -10 -10 -11 -11 -11 -11 -11 -11 -11 -12 -12 -12 -12
-14 -13 -13 -13 -13 -13 -13 -12 -12 -12 -12 -12 -12 -12 -11 -11 -11 -11 -11 -11 -11 -11 -11 -10 -10 -10 -11 -10 -11 -11 -11 -11 -11 -11 -11 -11 -11 -11 -12 -12 -12 -12 -12 -12 -12 -12 -12
-13 -13 -13 -13 -13 -13 -13 -13 -13 -12 -13 -13 -13 -12 -12 -12 -12 -11 -12 -12 -12 -11 -12 -11 -11 -10 -11 -11 -11 -11 -11 -11 -11 -11 -11 -11 -12 -12 -12 -12 -12 -12 -12 -12 -12 -13 -12
-14 -13 -14 -14 -13 -13 -13 -13 -13 -13 -13 -13 -13 -13 -13 -13 -13 -13 -12 -12 -12 -12 -12 -11 -11 -11 -11 -10 -11 -11 -11 -11 -11 -11 -11 -11 -12 -13 -13 -13 -13 -13 -13 -13 -13 -13 -13
-14 -14 -14 -14 -13 -13 -12 -13 -13 -13 -13 -13 -13 -14 -14 -13 -13 -13 -13 -13 -12 -12 -12 -12 -12 -11 -11 -11 -11 -11 -12 -11 -11 -11 -11 -11 -12 -13 -13 -13 -13 -13 -14 -13 -13 -13 -13
-14 -14 -14 -14 -14 -15 -14 -14 -14 -14 -13 -14 -14 -14 -14 -13 -13 -13 -13 -13 -12 -12 -12 -12 -12 -12 -12 -11 -12 -12 -11 -12 -12 -12 -11 -11 -12 -13 -14 -13 -13 -13 -13 -13 -14 -13 -13
-14 -14 -15 -15 -14 -15 -15 -15 -15 -14 -14 -14 -14 -14 -14 -14 -14 -14 -14 -13 -13 -13 -12 -12 -13 -13 -13 -12 -12 -12 -12 -12 -13 -12 -12 -12 -12 -13 -13 -13 -13 -13 -13 -13 -14 -13 -13
-15 -15 -15 -15 -14 -14 -15 -15 -15 -15 -15 -14 -15 -15 -14 -14 -14 -14 -14 -14 -13 -13 -13 -13 -13 -13 -13 -13 -12 -12 -13 -13 -13 -13 -13 -13 -13 -13 -13 -13 -13 -13 -13 -13 -13 -13 -12
-15 -15 -15 -15 -15 -15 -15 -15 -15 -15 -15 -15 -15 -15 -15 -14 -14 -14 -14 -14 -14 -14 -14 -14 -13 -13 -13 -13 -13 -13 -13 -13 -13 -14 -14 -14 -13 -13 -13 -13 -14 -13 -13 -13 -13 -13 -13
-16 -15 -16 -15 -16 -16 -16 -16 -16 -15 -15 -15 -15 -16 -15 -15 -15 -15 -15 -15 -14 -14 -14 -13 -14 -13 -14 -14 -14 -14 -14 -14 -14 -14 -14 -14 -14 -14 -14 -14 -14 -14 -13 -13 -13 -13 -13
-17 -17 -17 -16 -17 -17 -16 -16 -16 -16 -15 -15 -16 -17 -16 -16 -15 -15 -15 -16 -15 -16 -16 -15 -14 -14 -14 -14 -15 -15 -15 -14 -14 -14 -15 -14 -15 -14 -15 -15 -14 -14 -14 -14 -14 -13 -13
-20 -19 -19 -19 -19 -18 -18 -18 -17 -17 -17 -17 -16 -16 -17 -17 -17 -17 -17 -16 -16 -17 -16 -15 -15 -15 -15 -15 -15 -15 -15 -15 -15 -15 -16 -16 -16 -16 -16 -16 -16 -15 -16 -15 -15 -15 -14
-20 -20 -20 -21 -20 -20 -20 -20 -19 -19 -19 -19 -18 -18 -19 -18 -18 -18 -18 -18 -18 -17 -16 -16 -16 -16 -16 -16 -16 -16 -16 -16 -17 -18 -18 -18 -17 -17 -17 -17 -17 -17 -17 -17 -16 -16 -16
-21 -21 -21 -21 -21 -21 -21 -21 -20 -20 -20 -19 -19 -19 -20 -19 -19 -19 -18 -18 -18 -17 -17 -17 -17 -17 -17 -17 -17 -18 -18 -18 -18 -19 -19 -19 -19 -19 -19 -19 -18 -18 -19 -19 -18 -18 -18
-23 -23 -22 -22 -22 -22 -22 -22 -21 -22 -21 -21 -20 -20 -20 -20 -19 -19 -19 -19 -18 -18 -18 -18 -18 -19 -19 -19 -19 -19 -20 -21 -20 -20 -21 -20 -20 -20 -20 -20 -20 -20 -20 -20 -20 -19 -19
-24 -24 -24 -23 -23 -23 -23 -22 -22 -22 -22 -22 -22 -22 -21 -20 -20 -20 -20 -19 -19 -19 -19 -19 -20 -20 -20 -20 -20 -20 -21 -21 -21 -21 -22 -22 -21 -21 -21 -21 -20 -21 -21 -20 -20 -21 -21
-26 -26 -25 -25 -26 -24 -24 -24 -23 -24 -23 -23 -22 -22 -22 -21 -21 -21 -20 -19 -19 -19 -20 -20 -20 -21 -21 -21 -21 -21 -21 -22 -23 -23 -23 -23 -22 -21 -20 -21 -21 -21 -21 -21 -21 -21 -21
-28 -28 -27 -26 -26 -27 -25 -24 -24 -24 -24 -24 -23 -23 -23 -22 -23 -21 -20 -20 -21 -21 -21 -21 -21 -22 -22 -22 -22 -22 -22 -23 -23 -23 -23 -23 -23 -21 -22 -22 -22 -22 -22 -22 -21 -21 -21
-28 -28 -28 -27 -27 -27 -26 -26 -25 -25 -25 -25 -24 -24 -24 -24 -23 -22 -22 -22 -22 -21 -22 -22 -22 -22 -23 -23 -23 -23 -23 -23 -24 -24 -24 -24 -23 -23 -22 -23 -22 -22 -22 -22 -22 -21 -21
-30 -30 -29 -28 -28 -28 -27 -27 -27 -27 -27 -27 -25 -25 -25 -24 -23 -23 -23 -23 -23 -22 -23 -23 -23 -23 -23 -23 -23 -23 -23 -23 -23 -24 -23 -23 -23 -23 -23 -23 -24 -22 -22 -22 -22 -22 -22
-30 -30 -29 -29 -29 -29 -28 -27 -27 -27 -27 -28 -28 -26 -24 -24 -24 -24 -24 -23 -23 -23 -23 -23 -23 -23 -23 -23 -23 -23 -24 -24 -24 -24 -24 -23 -23 -23 -23 -23 -23 -23 -23 -22 -22 -22 -22
-31 -30 -30 -30 -30 -30 -29 -28 -27 -28 -28 -28 -28 -28 -25 -25 -25 -24 -25 -24 -24 -24 -24 -24 -24 -23 -24 -24 -24 -24 -24 -24 -24 -24 -24 -24 -23 -24 -23 -23 -24 -23 -23 -23 -22 -22 -22
-32 -32 -31 -30 -30 -30 -30 -29 -28 -28 -28 -28 -28 -28 -28 -26 -25 -25 -24 -24 -25 -25 -24 -24 -24 -24 -24 -25 -24 -24 -24 -24 -24 -24 -24 -24 -24 -24 -23 -24 -24 -24 -23 -23 -23 -23 -23
-33 -33 -32 -31 -31 -31 -30 -29 -29 -28 -28 -28 -28 -28 -28 -27 -26 -25 -25 -25 -25 -25 -25 -25 -25 -24 -25 -25 -25 -25 -25 -24 -24 -24 -24 -24 -24 -24 -24 -24 -24 -23 -23 -23 -23 -23 -23
-33 -33 -33 -32 -31 -31 -31 -30 -29 -29 -28 -28 -28 -28 -28 -28 -27 -27 -26 -26 -26 -26 -25 -25 -25 -25 -25 -25 -25 -25 -25 -25 -25 -25 -25 -25 -25 -25 -25 -24 -24 -23 -24 -23 -24 -23 -23
-34 -33 -34 -33 -33 -32 -32 -32 -30 -30 -28 -29 -28 -28 -28 -29 -28 -28 -28 -27 -27 -26 -26 -25 -26 -26 -26 -26 -26 -26 -25 -25 -25 -25 -25 -25 -25 -25 -25 -25 -24 -23 -24 -24 -24 -23 -24
-34 -34 -34 -34 -34 -33 -33 -32 -31 -30 -29 -29 -28 -29 -29 -29 -29 -29 -28 -28 -28 -27 -27 -27 -27 -27 -28 -27 -27 -26 -26 -26 -26 -25 -25 -25 -26 -26 -25 -25 -24 -24 -24 -24 -24 -24 -24
-34 -34 -34 -34 -34 -33 -33 -32 -32 -30 -30 -29 -29 -29 -29 -29 -29 -29 -28 -28 -28 -28 -28 -28 -28 -27 -27 -27 -27 -27 -26 -26 -26 -25 -26 -26 -26 -26 -25 -25 -24 -24 -24 -24 -24 -24 -24
-34 -34 -34 -34 -34 -34 -33 -32 -32 -31 -31 -30 -30 -30 -29 -29 -29 -29 -29 -29 -28 -28 -28 -28 -28 -27 -27 -27 -27 -27 -27 -27 -26 -26 -26 -26 -26 -26 -26 -25 -25 -24 -25 -24 -24 -24 -24

GFSGBSN_500_temp_138.txt.gz
Temp
-12 -12 -12 -12 -12 -12 -12 -12 -12 -11 -11 -11 -11 -11 -11 -10 -10 -10 -10 -10 -10 -10 -10 -10 -10 -10 -10 -10 -10 -10 -10 -10 -10 -10 -10 -10 -10 -10 -10 -10 -10 -10 -10 -10 -11 -10 -11
-12 -12 -12 -13 -12 -13 -12 -12 -12 -12 -12 -12 -12 -12 -12 -12 -11 -11 -11 -11 -11 -11 -11 -11 -10 -10 -10 -10 -11 -11 -11 -10 -10 -10 -10 -10 -10 -10 -10 -10 -11 -10 -11 -11 -11 -11 -11
-12 -12 -13 -13 -13 -13 -13 -13 -13 -13 -12 -12 -12 -13 -13 -12 -12 -12 -12 -12 -11 -12 -11 -11 -11 -11 -11 -11 -11 -11 -11 -11 -11 -10 -11 -11 -11 -11 -10 -10 -10 -11 -11 -11 -11 -11 -11
-12 -12 -12 -13 -13 -13 -13 -13 -13 -13 -13 -13 -13 -13 -13 -13 -13 -13 -12 -12 -12 -12 -12 -12 -12 -11 -12 -11 -11 -12 -11 -11 -11 -11 -11 -11 -11 -10 -11 -11 -11 -11 -11 -11 -12 -11 -11
-12 -12 -12 -13 -13 -13 -13 -13 -13 -13 -13 -13 -13 -13 -13 -13 -13 -13 -13 -13 -13 -12 -12 -12 -12 -12 -12 -12 -11 -12 -12 -12 -12 -11 -11 -11 -11 -11 -11 -10 -11 -11 -11 -11 -12 -11 -10
-13 -13 -13 -13 -13 -13 -13 -13 -13 -13 -13 -13 -13 -13 -13 -13 -13 -13 -13 -12 -12 -13 -13 -13 -12 -12 -12 -12 -12 -12 -12 -12 -12 -12 -12 -12 -11 -11 -11 -11 -11 -11 -11 -11 -13 -12 -10
-13 -13 -13 -13 -13 -13 -13 -13 -14 -14 -13 -13 -13 -13 -13 -13 -13 -13 -13 -13 -13 -12 -13 -13 -12 -13 -12 -12 -12 -12 -12 -12 -12 -12 -12 -12 -12 -11 -11 -11 -11 -11 -11 -12 -12 -14 -13
-14 -14 -14 -14 -14 -14 -13 -13 -14 -14 -13 -13 -13 -13 -13 -14 -14 -13 -14 -14 -13 -13 -12 -13 -13 -12 -13 -12 -12 -13 -13 -13 -13 -12 -13 -12 -11 -12 -12 -12 -11 -12 -11 -12 -12 -13 -13
-15 -14 -15 -15 -14 -14 -13 -13 -14 -14 -14 -14 -14 -14 -14 -14 -14 -13 -14 -14 -14 -13 -13 -12 -13 -13 -13 -12 -12 -13 -13 -13 -13 -13 -13 -13 -13 -12 -12 -12 -12 -13 -12 -12 -12 -12 -12
-15 -15 -15 -15 -15 -15 -15 -14 -14 -14 -14 -14 -14 -14 -14 -14 -14 -14 -14 -14 -14 -14 -13 -12 -12 -12 -13 -13 -12 -13 -13 -13 -14 -13 -14 -13 -13 -13 -12 -12 -13 -12 -13 -12 -12 -12 -12
-16 -16 -16 -16 -16 -16 -16 -16 -16 -16 -15 -14 -14 -14 -14 -14 -15 -15 -14 -15 -15 -15 -14 -13 -12 -12 -13 -13 -13 -13 -14 -14 -14 -14 -14 -13 -14 -14 -13 -13 -13 -13 -13 -13 -13 -13 -13
-17 -17 -17 -16 -16 -16 -16 -16 -16 -16 -16 -16 -16 -16 -15 -15 -15 -15 -16 -16 -16 -16 -14 -15 -12 -13 -13 -14 -14 -13 -15 -15 -14 -15 -14 -14 -15 -14 -14 -14 -14 -14 -14 -14 -14 -14 -13
-19 -19 -19 -19 -17 -18 -17 -16 -17 -17 -16 -16 -17 -17 -16 -16 -16 -17 -17 -17 -17 -16 -16 -17 -15 -14 -15 -15 -15 -15 -15 -15 -15 -15 -15 -16 -15 -15 -15 -15 -14 -14 -15 -15 -15 -16 -14
-20 -20 -20 -21 -20 -20 -20 -19 -19 -19 -19 -18 -18 -18 -18 -18 -17 -18 -18 -19 -17 -16 -17 -18 -16 -16 -16 -17 -16 -16 -16 -16 -16 -16 -17 -16 -16 -16 -15 -15 -15 -15 -16 -17 -17 -17 -17
-21 -21 -22 -22 -22 -21 -21 -21 -20 -21 -21 -21 -21 -20 -20 -20 -20 -21 -20 -19 -17 -17 -19 -18 -18 -17 -17 -17 -17 -17 -17 -17 -17 -18 -17 -18 -19 -18 -16 -15 -17 -17 -18 -18 -20 -18 -18
-22 -22 -22 -22 -23 -23 -22 -22 -21 -21 -21 -21 -21 -21 -22 -22 -22 -22 -21 -19 -19 -19 -20 -19 -19 -18 -18 -18 -18 -18 -18 -19 -19 -19 -19 -18 -19 -19 -19 -18 -17 -17 -19 -19 -19 -20 -19
-24 -23 -23 -23 -23 -23 -23 -23 -22 -22 -22 -22 -22 -22 -21 -22 -23 -22 -21 -20 -21 -21 -20 -20 -19 -19 -19 -19 -20 -20 -20 -20 -20 -20 -20 -19 -18 -19 -20 -20 -19 -20 -21 -21 -21 -20 -20
-24 -24 -24 -24 -24 -24 -24 -24 -24 -24 -23 -23 -23 -23 -22 -23 -23 -22 -21 -21 -21 -21 -21 -20 -20 -20 -19 -19 -19 -19 -19 -22 -19 -21 -21 -21 -19 -18 -19 -20 -20 -21 -21 -21 -21 -20 -20
-26 -26 -25 -25 -25 -25 -25 -25 -25 -25 -25 -25 -24 -23 -24 -23 -23 -22 -22 -21 -21 -21 -21 -21 -20 -21 -21 -20 -21 -21 -21 -22 -21 -21 -21 -21 -21 -20 -20 -21 -21 -22 -22 -22 -22 -21 -21
-27 -27 -27 -26 -26 -26 -26 -26 -26 -26 -26 -26 -26 -25 -25 -24 -23 -23 -23 -22 -22 -22 -22 -22 -21 -21 -21 -21 -22 -22 -21 -23 -21 -22 -22 -22 -22 -22 -21 -21 -22 -23 -22 -22 -22 -22 -21
-29 -29 -28 -28 -27 -27 -27 -27 -26 -26 -26 -26 -26 -26 -26 -25 -24 -24 -24 -24 -23 -22 -22 -22 -23 -22 -22 -22 -23 -22 -23 -23 -23 -22 -22 -23 -22 -22 -22 -21 -22 -23 -23 -22 -22 -23 -23
-30 -30 -29 -29 -28 -28 -28 -27 -27 -27 -26 -26 -26 -25 -26 -26 -25 -25 -25 -24 -24 -24 -24 -23 -23 -23 -24 -24 -24 -25 -25 -25 -25 -24 -23 -23 -23 -23 -22 -22 -23 -23 -22 -22 -22 -23 -23
-30 -30 -30 -29 -29 -29 -28 -28 -27 -27 -26 -26 -25 -26 -26 -26 -26 -25 -25 -25 -25 -25 -26 -25 -24 -24 -25 -25 -25 -24 -25 -24 -25 -24 -24 -24 -24 -24 -23 -23 -24 -24 -21 -22 -23 -24 -24
-32 -31 -30 -30 -29 -29 -28 -28 -27 -27 -27 -26 -26 -26 -26 -26 -26 -25 -26 -27 -26 -26 -26 -27 -25 -25 -26 -25 -24 -24 -24 -25 -25 -25 -25 -25 -24 -24 -24 -24 -24 -23 -22 -23 -24 -24 -23
-32 -32 -32 -31 -30 -29 -29 -28 -27 -27 -27 -26 -26 -26 -27 -26 -26 -26 -26 -27 -27 -27 -26 -26 -27 -26 -26 -26 -26 -26 -25 -25 -24 -25 -25 -25 -25 -25 -25 -24 -24 -23 -22 -24 -25 -24 -23
-33 -33 -33 -33 -32 -30 -30 -29 -28 -27 -27 -27 -26 -26 -27 -26 -27 -27 -27 -27 -27 -27 -27 -27 -27 -26 -26 -26 -26 -25 -25 -25 -25 -25 -25 -25 -25 -25 -24 -25 -24 -22 -24 -24 -25 -23 -24
-33 -33 -33 -32 -32 -32 -30 -29 -29 -29 -28 -28 -27 -27 -27 -27 -27 -27 -27 -27 -26 -27 -27 -27 -27 -27 -27 -27 -26 -26 -25 -25 -25 -25 -25 -26 -25 -25 -25 -25 -24 -23 -24 -25 -25 -23 -24
-33 -33 -33 -32 -32 -32 -31 -30 -30 -29 -29 -29 -29 -28 -27 -27 -27 -27 -27 -27 -27 -27 -27 -27 -27 -27 -28 -28 -27 -27 -26 -26 -26 -25 -25 -26 -25 -25 -25 -25 -24 -24 -24 -24 -24 -24 -25
-33 -33 -33 -33 -32 -32 -32 -31 -30 -30 -30 -30 -29 -28 -28 -28 -27 -28 -28 -27 -27 -27 -27 -28 -27 -28 -28 -28 -28 -28 -27 -27 -27 -26 -26 -26 -26 -26 -26 -25 -25 -25 -25 -25 -25 -25 -25